Regional Weather Roundup
Issued by NWS Goodland, KS

Home | Current Version | Previous Version | Text Only | Print | Product List | Glossary On
Versions: 1 2 3 4 5 6 7 8 9 10 11 12 13 14 15 16 17 18 19 20 21 22 23 24 25 26 27 28 29 30 31 32 33 34 35 36 37 38 39 40 41 42 43 44 45 46 47 48 49 50
412
ASUS43 KGLD 150108
RWRGLD

GOODLAND FORECAST AREA HOURLY WEATHER ROUNDUP
NATIONAL WEATHER SERVICE GOODLAND KS
600 PM MST THU NOV 14 2019

...OFFICIAL OBSERVATIONS...

CITY           SKY/WX    TMP DP  RH WIND       PRES   REMARKS
GOODLAND KS    MOCLDY    39  27  62 S12       30.27S
HILL CITY KS   CLEAR     41  28  60 SW3       30.31S
IMPERIAL NEB   CLOUDY    39  25  57 SE6       30.25S
MCCOOK NEB     MOCLDY    43  29  57 S6        30.27S
AKRON CO         N/A     44  28  53 S9        30.23S
BURLINGTON CO  MOCLDY    38  26  62 S10       30.28R
LIMON CO       MOCLDY    34  24  67 S7        30.27R
$$

...UNOFFICIAL OBSERVATIONS...

CITY           SKY/WX    TMP DP  RH WIND       PRES   REMARKS
COLBY KS       MOCLDY    39  28  65 S5        30.30S
SHARON SPRINGS   N/A     37  24  60 S9          N/A
YUMA CO        FAIR      34  25  69 S8        30.24
$$




USA.gov is the U.S. government's official web portal to all federal, state and local government web resources and services.